This is the latest recevied weather packets stored in our database for station/object KD0ISH. If no packets are shown the sender has not sent any weather packets the latest 10 day(s).
| Time | Temp. | Humidity | Pressure | Rain* | Wind** | Luminosity | Snow |
|---|---|---|---|---|---|---|---|
| 1777995290 | 11.11° C | 83% | 1011.3 hPa | 0 mm | - | 74 W/m² | - |
| 1777994986 | 11.11° C | 82% | 1011.1 hPa | 0 mm | - | 80 W/m² | - |
| 1777994684 | 11.11° C | 82% | 1011.7 hPa | 0 mm | - | 50 W/m² | - |
| 1777994384 | 11.11° C | 82% | 1011.4 hPa | 0 mm | - | 74 W/m² | - |
| 1777994080 | 11.11° C | 82% | 1011.2 hPa | 0 mm | - | 55 W/m² | - |
| 1777993777 | 11.11° C | 82% | 1011.1 hPa | 0 mm | - | 66 W/m² | - |
| 1777993474 | 11.67° C | 82% | 1011.8 hPa | 0 mm | - | 32 W/m² | - |
| 1777993173 | 11.67° C | 82% | 1012.1 hPa | 0 mm | - | 23 W/m² | - |
| 1777992872 | 11.67° C | 81% | 1011.7 hPa | 0 mm | - | 22 W/m² | - |
| 1777992570 | 11.67° C | 81% | 1011.6 hPa | 0 mm | - | 30 W/m² | - |
| 1777992267 | 11.67° C | 81% | 1011.1 hPa | 0 mm | - | 41 W/m² | - |
| 1777991964 | 11.67° C | 82% | 1010.7 hPa | 0 mm | - | 51 W/m² | - |
| 1777991656 | 11.67° C | 82% | 1010.2 hPa | 0 mm | - | 57 W/m² | - |
| 1777991353 | 11.67° C | 81% | 1010.1 hPa | 0 mm | - | 75 W/m² | - |
| 1777991051 | 11.11° C | 82% | 1009.7 hPa | 0 mm | - | 91 W/m² | - |
| 1777990748 | 11.67° C | 82% | 1009.7 hPa | 0 mm | - | 127 W/m² | - |
| 1777990445 | 11.67° C | 82% | 1009.9 hPa | 0 mm | - | 144 W/m² | - |
| 1777989838 | 11.67° C | 83% | 1009.8 hPa | 0 mm | - | 107 W/m² | - |
| 1777989535 | 11.11° C | 83% | 1009.7 hPa | 0 mm | - | 217 W/m² | - |
| 1777989231 | 10.56° C | 85% | 1009.6 hPa | 0 mm | - | 112 W/m² | - |
| 1777988927 | 10.56° C | 85% | 1010 hPa | 0 mm | - | 88 W/m² | - |
| 1777988624 | 10.56° C | 86% | 1010.2 hPa | 0 mm | - | 98 W/m² | - |
| 1777988321 | 10.56° C | 87% | 1010.2 hPa | 0 mm | - | 76 W/m² | - |
| 1777988018 | 10.56° C | 87% | 1010.1 hPa | 0 mm | - | 57 W/m² | - |
| 1777987713 | 10.56° C | 87% | 1010.3 hPa | 0 mm | - | 63 W/m² | - |
* Rain latest hour (hover to see other rain measurements)
** Current wind speed in m/s (hover to see current wind gust speed)